Portada
METAR-TAF:

METAR-TAF

Aeroports :

Millinocket Municipal Airport

Millinocket, Maine, Estats Units d'Amèrica

latitud: 45-38-52N, longitud: 068-41-31W, altitud: 124 m

Observació

L'informe es va fer fa 14 minuts, a les 06:53 UTC
Vent 4 kt amb direcció variable
Temperatura 11°C
Humitat 100%
Pressió 1016 hPa
Visibilitat: 8.0 km
Cel cobert a una alçada de 300 ft
boirina

METAR: KMLT 240653Z AUTO VRB04KT 5SM BR OVC003 11/11 A3000 RMK AO2 SLP163 T01110106

Hora: 03:07 (07:07 UTC)


TAF: manca

Observacions i pronòstics meteorològics de més de 4000 aeroports (METAR i TAF).

Les estacions disponibles són els punts grocs i vermells al mapa.

Posi el ratolí al punt desitjat per veure el nom de l'estació.

Feu clic per veure les observacions i els pronòstics meteorològics.

Per canviar el mapa: feu clic els botons verds amb una creu de color negre per apropar; al botó verd amb un guió per allunyar la imatge; o en les fletxes verdes per a mapes adjacents.


METAR-TAF: